TimePDT,TemperatureF,Dew PointF,Humidity,Sea Level PressureIn,VisibilityMPH,Wind Direction,Wind SpeedMPH,Gust SpeedMPH,PrecipitationIn,Events,Conditions,WindDirDegrees,DateUTC
12:56 AM,50.0,35.1,57,30.08,10.0,Calm,Calm,-,N/A,,Clear,0,2013-07-17 07:56:00
1:56 AM,48.0,35.1,61,30.09,10.0,Calm,Calm,-,N/A,,Clear,0,2013-07-17 08:56:00
2:56 AM,50.0,30.9,48,30.09,10.0,Calm,Calm,-,N/A,,Clear,0,2013-07-17 09:56:00
3:56 AM,46.9,30.9,54,30.11,10.0,Calm,Calm,-,N/A,,Clear,0,2013-07-17 10:56:00
4:56 AM,46.9,30.0,52,30.12,10.0,Calm,Calm,-,N/A,,Clear,0,2013-07-17 11:56:00
5:56 AM,44.1,30.9,60,30.15,10.0,Calm,Calm,-,N/A,,Clear,0,2013-07-17 12:56:00
6:56 AM,48.0,33.1,56,30.16,10.0,ENE,3.5,-,N/A,,Clear,60,2013-07-17 13:56:00
7:56 AM,59.0,41.0,51,30.16,10.0,Calm,Calm,-,N/A,,Clear,0,2013-07-17 14:56:00
8:56 AM,66.0,37.9,36,30.16,10.0,Calm,Calm,-,N/A,,Clear,0,2013-07-17 15:56:00
9:56 AM,73.0,41.0,31,30.14,10.0,Calm,Calm,-,N/A,,Clear,0,2013-07-17 16:56:00
10:56 AM,78.1,41.0,27,30.14,10.0,Calm,Calm,-,N/A,,Clear,0,2013-07-17 17:56:00
11:56 AM,81.0,35.1,19,30.15,10.0,Calm,Calm,-,N/A,,Clear,0,2013-07-17 18:56:00
12:56 PM,84.0,33.1,16,30.15,10.0,Variable,3.5,-,N/A,,Clear,0,2013-07-17 19:56:00
1:56 PM,84.9,37.0,18,30.14,10.0,Calm,Calm,-,N/A,,Clear,0,2013-07-17 20:56:00
2:56 PM,84.9,35.1,17,30.13,10.0,Variable,3.5,-,N/A,,Clear,0,2013-07-17 21:56:00
3:56 PM,86.0,34.0,16,30.12,10.0,Calm,Calm,-,N/A,,Clear,0,2013-07-17 22:56:00
4:56 PM,84.0,30.9,15,30.12,10.0,Calm,Calm,-,N/A,,Clear,0,2013-07-17 23:56:00
5:56 PM,82.0,30.0,15,30.12,10.0,Calm,Calm,-,N/A,,Clear,0,2013-07-18 00:56:00
6:56 PM,80.1,24.1,13,30.12,10.0,Calm,Calm,-,N/A,,Clear,0,2013-07-18 01:56:00
7:56 PM,77.0,25.0,15,30.10,10.0,Calm,Calm,-,N/A,,Clear,0,2013-07-18 02:56:00
8:56 PM,64.9,37.0,36,30.12,10.0,Calm,Calm,-,N/A,,Clear,0,2013-07-18 03:56:00
9:56 PM,61.0,34.0,36,30.13,10.0,Calm,Calm,-,N/A,,Clear,0,2013-07-18 04:56:00
10:56 PM,55.0,30.9,40,30.14,10.0,NE,3.5,-,N/A,,Clear,40,2013-07-18 05:56:00
11:56 PM,54.0,30.9,41,30.16,10.0,ENE,3.5,-,N/A,,Clear,60,2013-07-18 06:56:00